Tracking 29892 objects as of 21-Nov-2024
HD Live streaming from Space Station
objects crossing your sky now

THORAD AGENA D DEB

Track THORAD AGENA D DEB now!
10-day predictions


NORAD ID: 4277
Int'l Code: 1969-082DL
Perigee: 844.1 km
Apogee: 907.8 km
Inclination: 70.0 °
Period: 102.3 minutes
Semi major axis: 7246 km
RCS: 0.2357 m2 (medium)
Launch date: September 30, 1969
Source: United States (US)
Launch site: AIR FORCE WESTERN TEST RANGE (AFWTR)

Note: This is SATELLITE DEBRIS
Your satellite tracking list
Your tracking list is empty




NASA's NSSDC Master Catalog

Two Line Element Set (TLE):
1 04277U 69082DL  24325.01120640  .00000164  00000-0  12939-3 0  9993
2 04277  70.0206 191.3878 0044005 272.0819  87.5254 14.07243326827714
Source of the keplerian elements: AFSPC